Location: Flotzheim
(48.8375°N, 10.8136°E)
Time: 04:52:32
(UTC+00:00)

Cosmos 1689 Rocket - Pass Details

Date: 23 January 2021
Orbit: 353 x 367 km, 97.5° (Epoch: 26 February)

Event Time Altitude Azimuth Distance (km) Brightness Sun altitude
Exits shadow 18:15:39 27° 212° (SSW) 731 3.8 -22.0°
Drops below altitude 10° 18:17:06 10° 204° (SSW) 1,328 5.1 -22.2°
Sets 18:19:01 0° 201° (SSW) 2,165 6.2 -22.6°
